Regional Weather Roundup
Issued by NWS

Home | Current Version | Previous Version | Text Only | Print | Product List | Glossary Off
Versions: 1 2 3 4 5 6 7 8 9 10 11 12 13 14 15 16 17 18 19 20 21 22 23 24 25 26 27 28 29 30 31 32 33 34 35 36 37 38 39 40 41 42 43 44 45 46 47 48 49 50

670
ASUS44 KLIX 311405
RWRLA
LOUISIANA WEATHER ROUNDUP
NATIONAL WEATHER SERVICE NEW ORLEANS LA
900 AM CDT THU JUL 31 2014

NOTE: "FAIR" INDICATES FEW OR NO CLOUDS BELOW 12,000 FEET WITH NO
      SIGNIFICANT WEATHER AND/OR OBSTRUCTIONS TO VISIBILITY.
      SKY/WX - SKY CONDITION AND SIGNIFICANT WEATHER.
      TMP - AIR TEMPERATURE.    DP   - DEWPOINT TEMPERATURE.
      RH  - RELATIVE HUMIDITY.  PRES - PRESSURE.
      HX  - HEAT INDEX.         WCI  - WIND CHILL INDEX.

*  THESE STATIONS ARE NOT NWS OR FAA STATIONS AND ARE NOT UNDER
   NWS QUALITY CONTROL.

LAZ040-048-061>063-065-066-069-311500-
SOUTHEAST LOUISIANA

CITY           SKY/WX    TMP DP  RH WIND       PRES   REMARKS
N.O. AUDUBON     N/A     82  70  66 MISG        N/A
N.O. INTL ARPT PTSUNNY   85  69  58 NE9       30.04R
N.O. LAKEFRONT PTSUNNY   80  66  62 E10       30.05R
N.O. DOWNTOWN* FAIR      79  63  57 NE6       30.05S
SLIDELL        PTSUNNY   76  64  66 NE6       30.05R
BATON ROUGE    CLOUDY    73  64  73 NE6       30.05R
BOOTHVILLE     SUNNY     82  65  56 NE3       30.05R
BELLE CHASSE   CLOUDY    79  70  74 NE6       30.04R
BOGALUSA*      PTSUNNY   74  64  71 CALM      30.08S
GALLIANO*      NOT AVBL
NEW ROADS*     FAIR      75  64  67 E3        30.05F
GONZALES*      FAIR      75  71  87 CALM      30.04S
HAMMOND*       PTSUNNY   75  63  64 CALM      30.07S
HOUMA*         CLOUDY    79  66  65 CALM      30.04R
PORT FOURCHON* MOSUNNY   82  64  54 E7        30.05R

$$

LAZ041-044-053-054-311500-
SOUTHWEST LOUISIANA

CITY           SKY/WX    TMP DP  RH WIND       PRES   REMARKS
LAKE CHARLES   PTSUNNY   79  70  74 E6        30.02R
LAFAYETTE      PTSUNNY   75  69  81 NE7       30.04R
PATTERSON      PTSUNNY   81  72  74 E6        30.07R
SALT POINT       N/A     82  72  71 CALM      30.02R
NEW IBERIA     CLOUDY    76  68  76 E6        30.04R
CHENAULT AIRPK PTSUNNY   77  68  73 NE6       30.03R

$$

LAZ027-028-311500-
CENTRAL LOUISIANA

CITY           SKY/WX    TMP DP  RH WIND       PRES   REMARKS
FORT POLK      CLOUDY    75  64  68 E6        30.04S
ALEXANDRIA INT PTSUNNY   76  66  71 E6        30.04R
ALEXANDRIA     CLOUDY    75  66  73 E5        30.05S

$$

LAZ001-002-311500-
NORTHWEST LOUISIANA

CITY           SKY/WX    TMP DP  RH WIND       PRES   REMARKS
SHREVEPORT     LGT RAIN  70  67  90 E3        30.05R
BARKSDALE AFB  LGT RAIN  69  66  91 E6        30.05R
DTN SHREVEPORT LGT RAIN  69  66  90 CALM      30.05R

$$

LAZ014-016-311500-
NORTHEAST LOUISIANA

CITY           SKY/WX    TMP DP  RH WIND       PRES   REMARKS
MONROE         CLOUDY    71  66  84 E3        30.07S
TALLULAH       CLOUDY    72  67  84 CALM      30.08S

$$




USA.gov is the U.S. government's official web portal to all federal, state and local government web resources and services.